Regional Weather Roundup
Issued by NWS Tiyan, Guam

Home | Current Version | Previous Version | Text Only | Print | Product List | Glossary On
Versions: 1 2 3 4 5 6 7 8 9 10 11 12 13 14 15 16 17 18 19 20 21 22 23 24 25 26 27 28 29 30 31 32 33 34 35 36 37 38 39 40 41 42 43 44 45 46 47 48 49
000
ASGM40 PGUM 020712
RWRGUM
WEATHER ROUNDUP FOR THE MARIANAS
NATIONAL WEATHER SERVICE TIYAN GU
500 PM CHST THU OCT 02 2014

GUZ001>004-020800-
MARIANA ISLANDS-

CITY           SKY/WX    TMP DP  RH WIND       PRES   REMARKS
GUAM AIRPORT   MOSUNNY   84  77  79 S14G21    29.68R HX  94
ANDERSEN AFB   MOSUNNY   82  75  78 SW14      29.68R
ROTA AIRPORT   PTSUNNY   81  77  89 S15G21    29.66R
TINIAN AP      MOSUNNY   82  77  83 S9        29.63R HX  91
SAIPAN AP      MOSUNNY   84  79  84 S14G23    29.66R HX  96

$$



USA.gov is the U.S. government's official web portal to all federal, state and local government web resources and services.